Weather History for Clinton, AR

Change the Weather History Date:

Friday, September 13, 2013

  Actual Average (KFLP) Record (KFLP)
Temperature  
Mean Temperature 71 °F -  
Max Temperature 82 °F 81 °F 96 °F (2005)
Min Temperature 60 °F 58 °F 50 °F (1996)
Cooling Degree Days 6    
Growing Degree Days 21 (Base 50)    
Moisture  
Dew Point 60 °F    
Average Humidity 65    
Maximum Humidity 100    
Minimum Humidity 37    
Precipitation  
Precipitation 0.00 in - - ()
Sea Level Pressure  
Sea Level Pressure 30.04 in    
Wind  
Wind Speed 1 mph (NE)    
Max Wind Speed 8 mph    
Max Gust Speed -    
Visibility 9 miles    
Events      
Averages and records for this station are not official NWS values.
T = Trace of Precipitation, MM = Missing Value Source: NWS Daily Summary

Daily Weather History Graph

Daily Weather History Graph

Search for Another Location

Airport:

Trip Planner

Search our weather history database for the weather conditions in past years. The results will help you decide how hot, cold, wet, or windy it might be!

Date:

Astronomy

Sep. 13, 2013 Rise Set
Actual Time 6:51 AM CDT 7:19 PM CDT
Civil Twilight 6:25 AM CDT 7:45 PM CDT
Nautical Twilight 5:55 AM CDT 8:15 PM CDT
Astronomical Twilight 5:24 AM CDT 8:45 PM CDT
Moon 3:01 PM CDT (9/13) 12:30 AM CDT (9/13)
Length of Visible Light 13h 19m
Length of Day
12h 28m
First Quarter, 61% of the Moon is Illuminated
Sep 13
First Quarter
Sep 19
Full
Sep 26
Last Quarter
Oct 4
New
Oct 11
First Quarter

Hourly Weather History & Observations

Time (CDT) Temp. Heat Index Dew Point Humidity Pressure Visibility Wind Dir Wind Speed Gust Speed Precip Events Conditions
12:15 AM 71.6 °F - 71.6 °F 100% 30.02 in 5.0 mi Calm Calm - N/A   Clear
12:35 AM 71.6 °F - 71.6 °F 100% 30.02 in 4.0 mi Calm Calm - N/A   Clear
12:55 AM 71.6 °F - 71.6 °F 100% 30.02 in 4.0 mi Calm Calm - N/A   Clear
1:15 AM 71.6 °F - 71.6 °F 100% 30.03 in 4.0 mi Calm Calm - N/A   Clear
1:35 AM 71.6 °F - 69.8 °F 94% 30.03 in 4.0 mi Calm Calm - N/A   Clear
1:55 AM 71.6 °F - 71.6 °F 100% 30.03 in 4.0 mi Calm Calm - N/A   Partly Cloudy
2:15 AM 71.6 °F - 71.6 °F 100% 30.02 in 5.0 mi Calm Calm - N/A   Scattered Clouds
2:35 AM 71.6 °F - 71.6 °F 100% 30.02 in 6.0 mi Calm Calm - N/A   Mostly Cloudy
2:55 AM 73.4 °F - 69.8 °F 88% 30.02 in 10.0 mi North 3.5 mph - N/A   Overcast
3:15 AM 73.4 °F - 69.8 °F 88% 30.02 in 10.0 mi Calm Calm - N/A   Mostly Cloudy
3:35 AM 73.4 °F - 69.8 °F 88% 30.02 in 10.0 mi Calm Calm - N/A   Mostly Cloudy
3:55 AM 73.4 °F - 69.8 °F 88% 30.02 in 10.0 mi Calm Calm - N/A   Scattered Clouds
4:15 AM 75.2 °F - 69.8 °F 83% 30.02 in 10.0 mi Calm Calm - N/A   Clear
4:35 AM 75.2 °F - 66.2 °F 73% 30.03 in 10.0 mi Calm Calm - N/A   Partly Cloudy
4:55 AM 73.4 °F - 64.4 °F 73% 30.03 in 10.0 mi Calm Calm - N/A   Partly Cloudy
5:15 AM 73.4 °F - 62.6 °F 69% 30.04 in 10.0 mi Calm Calm - N/A   Clear
5:35 AM 71.6 °F - 62.6 °F 73% 30.05 in 10.0 mi Calm Calm - N/A   Clear
5:55 AM 71.6 °F - 60.8 °F 69% 30.05 in 10.0 mi Calm Calm - N/A   Clear
6:15 AM 69.8 °F - 60.8 °F 73% 30.06 in 10.0 mi Calm Calm - N/A   Clear
6:35 AM 69.8 °F - 57.2 °F 64% 30.06 in 10.0 mi NNW 3.5 mph - N/A   Clear
6:55 AM 69.8 °F - 57.2 °F 64% 30.07 in 10.0 mi North 3.5 mph - N/A   Mostly Cloudy
7:15 AM 69.8 °F - 57.2 °F 64% 30.07 in 10.0 mi Calm Calm - N/A   Mostly Cloudy
7:35 AM 69.8 °F - 57.2 °F 64% 30.07 in 10.0 mi NNW 3.5 mph - N/A   Mostly Cloudy
7:55 AM 69.8 °F - 57.2 °F 64% 30.08 in 9.0 mi Calm Calm - N/A   Mostly Cloudy
8:15 AM 71.6 °F - 57.2 °F 60% 30.08 in 10.0 mi Calm Calm - N/A   Overcast
8:35 AM 71.6 °F - 57.2 °F 60% 30.08 in 10.0 mi Calm Calm - N/A   Scattered Clouds
8:55 AM 73.4 °F - 57.2 °F 57% 30.08 in 10.0 mi NNE 3.5 mph - N/A   Clear
9:15 AM 75.2 °F - 57.2 °F 53% 30.08 in 10.0 mi Calm Calm - N/A   Clear
9:35 AM 75.2 °F - 57.2 °F 53% 30.09 in 10.0 mi NNE 3.5 mph - N/A   Clear
9:55 AM 75.2 °F - 55.4 °F 50% 30.09 in 10.0 mi NE 3.5 mph - N/A   Clear
10:15 AM 77.0 °F - 55.4 °F 47% 30.09 in 10.0 mi NE 4.6 mph - N/A   Clear
10:35 AM 78.8 °F - 55.4 °F 44% 30.09 in 10.0 mi East 5.8 mph - N/A   Clear
10:55 AM 78.8 °F - 55.4 °F 44% 30.09 in 10.0 mi East 4.6 mph - N/A   Clear
11:15 AM 78.8 °F - 55.4 °F 44% 30.09 in 10.0 mi Calm Calm - N/A   Clear
11:35 AM 78.8 °F - 55.4 °F 44% 30.08 in 10.0 mi ENE 4.6 mph - N/A   Clear
11:55 AM 78.8 °F - 55.4 °F 44% 30.08 in 10.0 mi East 4.6 mph - N/A   Clear
12:15 PM 80.6 °F 80.5 °F 55.4 °F 42% 30.07 in 10.0 mi NE 4.6 mph - N/A   Clear
12:35 PM 80.6 °F 80.5 °F 55.4 °F 42% 30.06 in 10.0 mi NNE 3.5 mph - N/A   Clear
12:55 PM 82.4 °F 81.7 °F 55.4 °F 39% 30.06 in 10.0 mi ENE 4.6 mph - N/A   Clear
1:15 PM 80.6 °F 80.5 °F 55.4 °F 42% 30.05 in 10.0 mi East 5.8 mph - N/A   Clear
1:35 PM 80.6 °F 80.5 °F 55.4 °F 42% 30.04 in 10.0 mi NE 4.6 mph - N/A   Clear
1:55 PM 80.6 °F 80.3 °F 53.6 °F 39% 30.04 in 10.0 mi East 3.5 mph - N/A   Clear
2:15 PM 82.4 °F 81.4 °F 53.6 °F 37% 30.03 in 10.0 mi ESE 4.6 mph - N/A   Clear
2:35 PM 82.4 °F 81.4 °F 53.6 °F 37% 30.02 in 10.0 mi North 4.6 mph - N/A   Clear
2:55 PM 82.4 °F 81.4 °F 53.6 °F 37% 30.02 in 10.0 mi ENE 3.5 mph - N/A   Clear
3:15 PM 82.4 °F 81.4 °F 53.6 °F 37% 30.01 in 10.0 mi East 4.6 mph - N/A   Clear
3:35 PM 82.4 °F 81.7 °F 55.4 °F 39% 30.01 in 10.0 mi North 4.6 mph - N/A   Clear
3:55 PM 82.4 °F 81.4 °F 53.6 °F 37% 30.01 in 10.0 mi NNW 8.1 mph - N/A   Clear
4:15 PM 82.4 °F 81.7 °F 55.4 °F 39% 30.00 in 10.0 mi NNE 6.9 mph - N/A   Clear
4:35 PM 82.4 °F 81.7 °F 55.4 °F 39% 30.00 in 10.0 mi NNE 5.8 mph - N/A   Clear
4:55 PM 80.6 °F 80.5 °F 55.4 °F 42% 30.00 in 10.0 mi NNE 3.5 mph - N/A   Clear
5:15 PM 80.6 °F 80.3 °F 53.6 °F 39% 30.00 in 10.0 mi NNE 3.5 mph - N/A   Clear
5:35 PM 80.6 °F 80.3 °F 53.6 °F 39% 30.00 in 8.0 mi Calm Calm - N/A   Clear
5:55 PM 78.8 °F - 55.4 °F 44% 30.00 in 10.0 mi Calm Calm - N/A   Clear
6:15 PM 78.8 °F - 55.4 °F 44% 30.00 in 10.0 mi NE 4.6 mph - N/A   Clear
6:35 PM 77.0 °F - 55.4 °F 47% 30.00 in 10.0 mi North 4.6 mph - N/A   Clear
6:55 PM 75.2 °F - 55.4 °F 50% 30.00 in 10.0 mi Calm Calm - N/A   Clear
7:15 PM 73.4 °F - 57.2 °F 57% 30.01 in 10.0 mi Calm Calm - N/A   Clear
7:35 PM 71.6 °F - 59.0 °F 64% 30.01 in 10.0 mi Calm Calm - N/A   Clear
7:55 PM 69.8 °F - 59.0 °F 68% 30.01 in 10.0 mi Calm Calm - N/A   Clear
8:15 PM 66.2 °F - 57.2 °F 73% 30.02 in 10.0 mi Calm Calm - N/A   Clear
8:35 PM 66.2 °F - 60.8 °F 83% 30.03 in 10.0 mi Calm Calm - N/A   Clear
8:55 PM 66.2 °F - 59.0 °F 78% 30.04 in 10.0 mi Calm Calm - N/A   Clear
9:15 PM 66.2 °F - 57.2 °F 73% 30.04 in 10.0 mi Calm Calm - N/A   Clear
9:35 PM 64.4 °F - 59.0 °F 83% 30.05 in 10.0 mi Calm Calm - N/A   Clear
9:55 PM 62.6 °F - 60.8 °F 94% 30.06 in 10.0 mi Calm Calm - N/A   Clear
10:15 PM 62.6 °F - 60.8 °F 94% 30.06 in 10.0 mi Calm Calm - N/A   Clear
10:35 PM 62.6 °F - 59.0 °F 88% 30.06 in 10.0 mi Calm Calm - N/A   Clear
10:55 PM 62.6 °F - 60.8 °F 94% 30.07 in 10.0 mi Calm Calm - N/A   Clear
11:15 PM 60.8 °F - 59.0 °F 94% 30.07 in 10.0 mi Calm Calm - N/A   Clear
11:35 PM 60.8 °F - 59.0 °F 94% 30.07 in 9.0 mi Calm Calm - N/A   Clear
11:55 PM 60.8 °F - 57.2 °F 88% 30.07 in 10.0 mi Calm Calm - N/A   Clear